Surface/Precipitation History
12/21/2014 19:13  to  12/22/2014 19:13
Change End Date:
Date/Time
(MST)
Sf
Temp Chem Water Layer Surface Precipitation
Sf Sub Frz Factor Pct Depth IcePct Cond Salin Type Intens Accum Rate
12/22/2014 19:07 Dry 30.2F 30F - - - - - 0 mhos 56 None None - -
12/22/2014 19:02 Dry 30.2F 30F - - - - - 0 mhos 56 None None - -
12/22/2014 18:52 Dry 30.2F 30F - - - - - 0 mhos 56 None None - -
12/22/2014 18:50 Dry 30.2F 30F - - - - - 0 mhos 57 None None - -
12/22/2014 18:42 Dry 30.2F 30F - - - - - 0 mhos 55 None None - -
12/22/2014 18:37 Dry 30.2F 30F - - - - - 0 mhos 55 None None - -
12/22/2014 18:32 Dry 30.2F 30F - - - - - 0 mhos 55 None None - -
12/22/2014 18:22 Dry 30.2F 30F - - - - - 0 mhos 53 None None - -
12/22/2014 18:20 Dry 30.4F 30F - - - - - 0 mhos 53 None None - -
12/22/2014 18:12 Dry 30.2F 30F - - - - - 0 mhos 53 None None - -
12/22/2014 18:07 Dry 30.0F 30F - - - - - 0 mhos 54 None None - -
12/22/2014 18:02 Dry 30.0F 30F - - - - - 0 mhos 53 None None - -
12/22/2014 17:52 Dry 29.8F 30F - - - - - 0 mhos 53 None None - -
12/22/2014 17:51 Dry 29.8F 30F - - - - - 0 mhos 53 None None - -
12/22/2014 17:42 Dry 29.5F 30F - - - - - 0 mhos 53 None None - -
Date/Time
(MST)
Sf
Temp Chem Water Layer Surface Precipitation
Sf Sub Frz Factor Pct Depth IcePct Cond Salin Type Intens Accum Rate
12/22/2014 17:38 Ice Watch 29.1F 30F - 5 - - - 0 mhos 53 None None - -
12/22/2014 17:32 Ice Watch 29.7F 30F - 5 - - - 0 mhos 51 None None - -
12/22/2014 17:22 Ice Watch 30.2F 30F - 5 - - - 0 mhos 48 None None - -
12/22/2014 17:20 Ice Watch 30.2F 30F - 5 - - - 0 mhos 48 None None - -
12/22/2014 17:11 Ice Watch 30.2F 30F - 5 - - - 0 mhos 47 None None - -
12/22/2014 17:07 Ice Watch 29.8F 30F - 5 - - - 0 mhos 47 None None - -
12/22/2014 17:01 Ice Watch 29.8F 30F - 5 - - - 0 mhos 46 None None - -
12/22/2014 16:51 Ice Watch 29.5F 30F - 5 - - - 0 mhos 45 None None - -
12/22/2014 16:51 Ice Watch 29.5F 30F - 5 - - - 0 mhos 45 None None - -
12/22/2014 16:41 Ice Watch 29.1F 30F - 5 - - - 0 mhos 44 None None - -
12/22/2014 16:37 Ice Watch 29.3F 30F - 5 - - - 0 mhos 42 None None - -
12/22/2014 16:31 Ice Watch 29.5F 30F - 5 - - - 0 mhos 40 None None - -
12/22/2014 16:21 Ice Watch 30.2F 30F - 5 - - - 0 mhos 35 None None - -
12/22/2014 16:21 Ice Watch 30.2F 30F - 5 - - - 0 mhos 35 None None - -
12/22/2014 16:11 Ice Watch 31.3F 30F - 5 - - - 0 mhos 30 None None - -
Date/Time
(MST)
Sf
Temp Chem Water Layer Surface Precipitation
Sf Sub Frz Factor Pct Depth IcePct Cond Salin Type Intens Accum Rate
12/22/2014 16:07 Ice Watch 31.5F 30F - 5 - - - 0 mhos 29 None None - -
12/22/2014 16:01 Ice Watch 31.6F 30F - 5 - - - 0 mhos 27 None None - -
12/22/2014 15:51 Dry 32.0F 30F - - - - - 0 mhos 24 None None - -
12/22/2014 15:51 Dry 32.0F 30F - - - - - 0 mhos 24 None None - -
12/22/2014 15:41 Dry 32.2F 30F - - - - - 0 mhos 22 None None - -
12/22/2014 15:37 Dry 32.5F 30F - - - - - 0 mhos 22 None None - -
12/22/2014 15:31 Dry 32.5F 30F - - - - - 0 mhos 21 None None - -
12/22/2014 15:21 Dry 33.1F 30F - - - - - 0 mhos 19 None None - -
12/22/2014 15:20 Dry 33.3F 30F - - - - - 0 mhos 19 None None - -
12/22/2014 15:11 Dry 35.8F 30F - - - - - 0 mhos 17 Yes - - -
12/22/2014 15:07 Dry 36.0F 30F - - - - - 0 mhos 17 None None - -
12/22/2014 15:01 Dry 36.3F 30F - - - - - 0 mhos 17 Yes - - -
12/22/2014 14:51 Dry 37.2F 30F - - - - - 0 mhos 16 None None - -
12/22/2014 14:51 Dry 37.2F 30F - - - - - 0 mhos 16 None None - -
12/22/2014 14:41 Dry 37.9F 30F - - - - - 0 mhos 15 Yes - - -
Date/Time
(MST)
Sf
Temp Chem Water Layer Surface Precipitation
Sf Sub Frz Factor Pct Depth IcePct Cond Salin Type Intens Accum Rate
12/22/2014 14:37 Dry 38.1F 30F - - - - - 0 mhos 15 Yes - - -
12/22/2014 14:31 Dry 38.5F 30F - - - - - 0 mhos 15 Yes - - -
12/22/2014 14:21 Dry 39.2F 30F - - - - - 0 mhos 14 Yes - - -
12/22/2014 14:11 Dry 40.1F 30F - - - - - 0 mhos 14 Yes - - -
12/22/2014 14:07 Dry 40.8F 30F - - - - - 0 mhos 14 Yes - - -
12/22/2014 14:01 Dry 41.9F 30F - - - - - 0 mhos 14 None None - -
12/22/2014 13:50 Dry 41.9F 30F - - - - - 0 mhos 15 Yes - - -
12/22/2014 13:50 Dry 41.9F 30F - - - - - 0 mhos 15 Yes - - -
12/22/2014 13:40 Dry 42.4F 30F - - - - - 0 mhos 15 Yes - - -
12/22/2014 13:37 Dry 42.4F 30F - - - - - 0 mhos 16 Yes - - -
12/22/2014 13:30 Dry 40.3F 30F - - - - - 0 mhos 16 None None - -
12/22/2014 13:21 Dry 41.5F 30F - - - - - 0 mhos 16 None None - -
12/22/2014 13:20 Dry 41.5F 30F - - - - - 0 mhos 16 None None - -
12/22/2014 13:10 Dry 44.4F 30F - - - - - 0 mhos 17 Yes - - -
12/22/2014 13:07 Dry 43.7F 30F - - - - - 0 mhos 18 None None - -
Date/Time
(MST)
Sf
Temp Chem Water Layer Surface Precipitation
Sf Sub Frz Factor Pct Depth IcePct Cond Salin Type Intens Accum Rate
12/22/2014 13:00 Dry 44.2F 30F - - - - - 0 mhos 19 None None - -
12/22/2014 12:51 Dry 42.8F 30F - - - - - 0 mhos 21 Yes - - -
12/22/2014 12:50 Dry 43.2F 30F - - - - - 0 mhos 22 Yes - - -
12/22/2014 12:40 Dry 43.5F 30F - - - - - 0 mhos 24 Yes - - -
12/22/2014 12:37 Dry 44.2F 30F - - - - - 0 mhos 25 None None - -
12/22/2014 12:30 Dry 43.0F 30F - - - - - 0 mhos 29 None None - -
12/22/2014 12:21 Dry 42.1F 30F - - - - - 0 mhos 33 None None - -
12/22/2014 12:20 Dry 42.4F 30F - - - - - 0 mhos 33 None None - -
12/22/2014 12:10 Dry 43.7F 30F - - - - - 0 mhos 41 Yes - - -
12/22/2014 12:07 Dry 42.6F 30F - - - - - 0 mhos 43 None None - -
12/22/2014 12:00 Dry 40.5F 30F - - - - - 1 mhos 48 None None - -
12/22/2014 11:51 Dry 37.4F 30F - - - - - 1 mhos 52 None None - -
12/22/2014 11:50 Dry 36.7F 30F - - - - - 1 mhos 52 None None - -
12/22/2014 11:40 Dry 34.9F 30F - - - - - 1 mhos 53 None None - -
12/22/2014 11:37 Dry 34.9F 30F - - - - - 1 mhos 54 Yes - - -
Date/Time
(MST)
Sf
Temp Chem Water Layer Surface Precipitation
Sf Sub Frz Factor Pct Depth IcePct Cond Salin Type Intens Accum Rate
12/22/2014 11:30 Dry 34.9F 30F - - - - - 1 mhos 55 None None - -
12/22/2014 11:21 Dry 34.9F 30F - - - - - 1 mhos 57 None None - -
12/22/2014 11:20 Dry 35.1F 30F - - - - - 1 mhos 56 None None - -
12/22/2014 11:10 Dry 34.5F 30F - - - - - 1 mhos 59 None None - -
12/22/2014 11:07 Dry 34.3F 30F - - - - - 1 mhos 59 None None - -
12/22/2014 11:00 Dry 33.6F 30F - - - - - 1 mhos 61 None None - -
12/22/2014 10:51 Dry 32.5F 30F - - - - - 1 mhos 62 None None - -
12/22/2014 10:50 Dry 32.5F 30F - - - - - 1 mhos 63 None None - -
12/22/2014 10:39 Dry 31.5F 30F - - - - - 1 mhos 69 None None - -
12/22/2014 10:37 Dry 31.3F 30F - - - - - 1 mhos 71 None None - -
12/22/2014 10:29 Dry 30.2F 30F - - - - - 1 mhos 77 None None - -
12/22/2014 10:21 Ice Warning 29.1F 30F 32F 5 0% - 99% 1 mhos 84 None None - -
12/22/2014 10:19 Ice Warning 29.1F 30F 32F 5 0% - 99% 1 mhos 85 None None - -
12/22/2014 10:09 Ice Warning 28.0F 30F 32F 5 0% - 99% 1 mhos 92 None None - -
12/22/2014 10:07 Ice Warning 28.0F 30F 32F 5 0% - 99% 1 mhos 93 None None - -
Date/Time
(MST)
Sf
Temp Chem Water Layer Surface Precipitation
Sf Sub Frz Factor Pct Depth IcePct Cond Salin Type Intens Accum Rate
12/22/2014 09:59 Ice Warning 27.7F 30F 32F 5 0% - 99% 1 mhos 97 None None - -
12/22/2014 09:51 Ice Warning 27.3F 30F 32F 5 0% - 99% 1 mhos 100 None None - -
12/22/2014 09:49 Ice Warning 27.1F 30F 32F 5 0% - 99% 1 mhos 101 None None - -
12/22/2014 09:39 Ice Warning 26.6F 30F 32F 5 0% - 99% 1 mhos 107 None None - -
12/22/2014 09:37 Ice Warning 26.6F 30F 32F 5 0% - 99% 1 mhos 107 None None - -
12/22/2014 09:29 Ice Warning 25.9F 30F 32F 5 0% - 99% 1 mhos 113 None None - -
12/22/2014 09:21 Ice Warning 25.3F 30F 32F 5 0% - 99% 1 mhos 118 None None - -
12/22/2014 09:19 Ice Warning 24.8F 30F 32F 5 0% - 99% 1 mhos 121 None None - -
12/22/2014 09:09 Ice Warning 23.7F 30F 32F 5 0% - 99% 1 mhos 131 None None - -
12/22/2014 09:07 Ice Warning 23.5F 30F 32F 5 0% - 99% 1 mhos 134 None None - -
12/22/2014 08:59 Ice Warning 23.5F 30F 32F 5 0% - 99% 1 mhos 132 None None - -
12/22/2014 08:51 Ice Warning 23.2F 30F 32F 5 0% - 99% 1 mhos 134 None None - -
12/22/2014 08:49 Ice Warning 23.2F 30F 32F 5 0% - 99% 1 mhos 134 None None - -
12/22/2014 08:39 Ice Warning 23.2F 30F 32F 5 0% - 99% 1 mhos 132 None None - -
12/22/2014 08:37 Ice Warning 23.0F 30F 32F 5 0% - 99% 1 mhos 133 None None - -
Date/Time
(MST)
Sf
Temp Chem Water Layer Surface Precipitation
Sf Sub Frz Factor Pct Depth IcePct Cond Salin Type Intens Accum Rate
12/22/2014 08:29 Ice Warning 23.2F 30F 32F 5 0% - 99% 1 mhos 130 None None - -
12/22/2014 08:20 Ice Warning 22.8F 30F 32F 5 0% - 99% 1 mhos 132 None None - -
12/22/2014 08:19 Ice Warning 22.8F 30F 32F 5 0% - 99% 1 mhos 132 None None - -
12/22/2014 08:09 Ice Warning 23.0F 30F 32F 5 0% - 99% 1 mhos 129 None None - -
12/22/2014 08:07 Ice Warning 23.0F 30F 32F 5 0% - 99% 1 mhos 129 None None - -
12/22/2014 07:59 Ice Warning 23.2F 30F 32F 5 0% - 99% 1 mhos 127 None None - -
12/22/2014 07:50 Ice Warning 23.0F 30F 32F 5 0% - 99% 1 mhos 127 None None - -
12/22/2014 07:49 Ice Warning 23.0F 30F 32F 5 0% - 99% 1 mhos 127 None None - -
12/22/2014 07:39 Ice Warning 23.0F 30F 32F 5 0% - 99% 1 mhos 127 None None - -
12/22/2014 07:38 Ice Warning 23.0F 30F 32F 5 0% - 99% 1 mhos 127 None None - -
12/22/2014 07:29 Ice Warning 23.0F 30F 32F 5 0% - 99% 1 mhos 126 None None - -
12/22/2014 07:21 Ice Warning 23.4F 30F 32F 5 0% - 99% 1 mhos 123 None None - -
12/22/2014 07:19 Ice Warning 23.5F 30F 32F 5 0% - 99% 1 mhos 121 None None - -
12/22/2014 07:09 Ice Warning 23.7F 31F 32F 5 0% - 99% 1 mhos 118 None None - -
12/22/2014 07:07 Ice Warning 23.5F 31F 32F 5 0% - 99% 1 mhos 119 None None - -
Date/Time
(MST)
Sf
Temp Chem Water Layer Surface Precipitation
Sf Sub Frz Factor Pct Depth IcePct Cond Salin Type Intens Accum Rate
12/22/2014 06:58 Ice Warning 23.7F 31F 32F 5 0% - 99% 1 mhos 117 None None - -
12/22/2014 06:48 Ice Warning 24.1F 31F 32F 5 0% - 99% 1 mhos 115 None None - -
12/22/2014 06:37 Ice Warning 24.4F 31F 32F 5 0% - 99% 1 mhos 112 None None - -
12/22/2014 06:28 Ice Warning 24.8F 31F 32F 5 0% - 99% 1 mhos 109 None None - -
12/22/2014 06:20 Ice Warning 25.2F 31F 32F 5 0% - 99% 1 mhos 107 None None - -
12/22/2014 06:18 Ice Warning 25.3F 31F 32F 5 0% - 99% 1 mhos 106 None None - -
12/22/2014 06:08 Ice Warning 25.5F 31F 32F 5 0% - 99% 1 mhos 105 None None - -
12/22/2014 06:06 Ice Warning 25.7F 31F 32F 5 0% - 99% 1 mhos 104 None None - -
12/22/2014 05:58 Ice Warning 25.7F 31F 32F 5 0% - 99% 1 mhos 104 None None - -
12/22/2014 05:50 Ice Warning 25.7F 31F 32F 5 0% - 99% 1 mhos 104 None None - -
12/22/2014 05:48 Ice Warning 25.7F 31F 32F 5 0% - 99% 1 mhos 104 None None - -
12/22/2014 05:38 Ice Warning 25.7F 31F 32F 5 0% - 99% 1 mhos 106 None None - -
12/22/2014 05:36 Ice Warning 25.7F 31F 32F 5 0% - 99% 1 mhos 106 None None - -
12/22/2014 05:28 Ice Warning 25.3F 31F 32F 5 0% - 99% 1 mhos 109 None None - -
12/22/2014 05:20 Ice Warning 25.0F 31F 32F 5 0% - 99% 1 mhos 111 None None - -
Date/Time
(MST)
Sf
Temp Chem Water Layer Surface Precipitation
Sf Sub Frz Factor Pct Depth IcePct Cond Salin Type Intens Accum Rate
12/22/2014 05:18 Ice Warning 24.8F 31F 32F 5 0% - 99% 1 mhos 113 None None - -
12/22/2014 05:08 Ice Warning 23.7F 31F 32F 5 0% - 99% 1 mhos 122 None None - -
12/22/2014 05:07 Ice Warning 23.7F 31F 32F 5 0% - 99% 1 mhos 122 None None - -
12/22/2014 04:58 Ice Warning 23.7F 31F 32F 5 0% - 99% 1 mhos 121 None None - -
12/22/2014 04:50 Ice Warning 23.5F 31F 32F 5 0% - 99% 1 mhos 122 None None - -
12/22/2014 04:48 Ice Warning 23.5F 31F 32F 5 0% - 99% 1 mhos 124 None None - -
12/22/2014 04:38 Ice Warning 23.4F 31F 32F 5 0% - 99% 1 mhos 125 None None - -
12/22/2014 04:37 Ice Warning 23.4F 31F 32F 5 0% - 99% 1 mhos 125 None None - -
12/22/2014 04:28 Ice Warning 23.4F 31F 32F 5 0% - 99% 1 mhos 124 None None - -
12/22/2014 04:21 Ice Warning 23.2F 31F 32F 5 0% - 99% 1 mhos 126 None None - -
12/22/2014 04:18 Ice Warning 23.2F 31F 32F 5 0% - 99% 1 mhos 126 None None - -
12/22/2014 04:08 Ice Warning 23.5F 31F 32F 5 0% - 99% 1 mhos 123 None None - -
12/22/2014 04:07 Ice Warning 23.4F 31F 32F 5 0% - 99% 1 mhos 125 None None - -
12/22/2014 03:57 Ice Warning 23.7F 31F 32F 5 0% - 99% 1 mhos 120 None None - -
12/22/2014 03:51 Ice Warning 23.9F 31F 32F 5 0% - 99% 1 mhos 119 None None - -
Date/Time
(MST)
Sf
Temp Chem Water Layer Surface Precipitation
Sf Sub Frz Factor Pct Depth IcePct Cond Salin Type Intens Accum Rate
12/22/2014 03:47 Ice Warning 23.7F 31F 32F 5 0% - 99% 1 mhos 121 None None - -
12/22/2014 03:37 Ice Warning 23.5F 31F 32F 5 0% - 99% 1 mhos 122 None None - -
12/22/2014 03:37 Ice Warning 23.5F 31F 32F 5 0% - 99% 1 mhos 122 None None - -
12/22/2014 03:27 Ice Warning 23.5F 31F 32F 5 0% - 99% 1 mhos 122 None None - -
12/22/2014 03:21 Ice Warning 23.7F 31F 32F 5 0% - 99% 1 mhos 120 None None - -
12/22/2014 03:17 Ice Warning 23.7F 31F 32F 5 0% - 99% 1 mhos 121 None None - -
12/22/2014 03:07 Ice Warning 24.4F 31F 32F 5 0% - 99% 1 mhos 115 None None - -
12/22/2014 03:07 Ice Warning 24.4F 31F 32F 5 0% - 99% 1 mhos 115 None None - -
12/22/2014 02:57 Ice Warning 25.0F 31F 32F 5 0% - 99% 1 mhos 110 None None - -
12/22/2014 02:51 Ice Warning 25.2F 31F 32F 5 0% - 99% 1 mhos 109 None None - -
12/22/2014 02:47 Ice Warning 25.2F 31F 32F 5 0% - 99% 1 mhos 109 None None - -
12/22/2014 02:37 Ice Warning 25.3F 31F 32F 5 0% - 99% 1 mhos 108 None None - -
12/22/2014 02:36 Ice Warning 25.3F 31F 32F 5 0% - 99% 1 mhos 108 None None - -
12/22/2014 02:27 Ice Warning 25.3F 31F 32F 5 0% - 99% 1 mhos 108 None None - -
12/22/2014 02:21 Ice Warning 25.3F 31F 32F 5 0% - 99% 1 mhos 109 None None - -
Date/Time
(MST)
Sf
Temp Chem Water Layer Surface Precipitation
Sf Sub Frz Factor Pct Depth IcePct Cond Salin Type Intens Accum Rate
12/22/2014 02:17 Ice Warning 25.3F 31F 32F 5 0% - 99% 1 mhos 109 None None - -
12/22/2014 02:07 Ice Warning 25.3F 31F 32F 5 0% - 99% 1 mhos 109 None None - -
12/22/2014 02:07 Ice Warning 25.3F 31F 32F 5 0% - 99% 1 mhos 109 None None - -
12/22/2014 01:57 Ice Warning 25.7F 31F 32F 5 0% - 99% 1 mhos 107 None None - -
12/22/2014 01:50 Ice Warning 25.5F 31F 32F 5 0% - 99% 1 mhos 109 None None - -
12/22/2014 01:47 Ice Warning 25.5F 31F 32F 5 0% - 99% 1 mhos 109 None None - -
12/22/2014 01:37 Ice Warning 25.5F 31F 32F 5 0% - 99% 1 mhos 109 None None - -
12/22/2014 01:37 Ice Warning 25.5F 31F 32F 5 0% - 99% 1 mhos 109 None None - -
12/22/2014 01:27 Ice Warning 25.2F 31F 32F 5 0% - 99% 1 mhos 112 None None - -
12/22/2014 01:21 Ice Warning 25.0F 31F 32F 5 0% - 99% 1 mhos 114 None None - -
12/22/2014 01:17 Ice Warning 25.2F 31F 32F 5 0% - 99% 1 mhos 113 None None - -
12/22/2014 01:07 Ice Warning 25.3F 31F 32F 5 0% - 99% 1 mhos 112 None None - -
12/22/2014 01:06 Ice Warning 25.3F 31F 32F 5 0% - 99% 1 mhos 112 None None - -
12/22/2014 00:57 Ice Warning 25.5F 31F 32F 5 0% - 99% 1 mhos 111 None None - -
12/22/2014 00:50 Ice Warning 25.7F 31F 32F 5 0% - 99% 1 mhos 110 None None - -
Date/Time
(MST)
Sf
Temp Chem Water Layer Surface Precipitation
Sf Sub Frz Factor Pct Depth IcePct Cond Salin Type Intens Accum Rate
12/22/2014 00:46 Ice Warning 25.7F 31F 32F 5 0% - 99% 1 mhos 109 None None - -
12/22/2014 00:37 Ice Warning 26.1F 31F 32F 5 0% - 99% 1 mhos 107 None None - -
12/22/2014 00:36 Ice Warning 26.1F 31F 32F 5 0% - 99% 1 mhos 107 None None - -
12/22/2014 00:26 Ice Warning 26.2F 31F 32F 5 0% - 99% 1 mhos 107 None None - -
12/22/2014 00:21 Ice Warning 26.4F 31F 32F 5 0% - 99% 1 mhos 106 None None - -
12/22/2014 00:16 Ice Warning 26.4F 31F 32F 5 0% - 99% 1 mhos 106 None None - -
12/22/2014 00:06 Ice Warning 26.6F 31F 32F 5 0% - 99% 1 mhos 106 None None - -
12/22/2014 00:06 Ice Warning 26.6F 31F 32F 5 0% - 99% 1 mhos 106 None None - -
12/21/2014 23:56 Ice Warning 26.8F 31F 32F 5 0% - 99% 1 mhos 105 None None - -
12/21/2014 23:56 Ice Warning 26.8F 31F 32F 5 0% - 99% 1 mhos 105 None None - -
12/21/2014 23:46 Ice Warning 26.8F 31F 32F 5 0% - 99% 1 mhos 104 None None - -
12/21/2014 23:37 Ice Warning 26.8F 31F 32F 5 0% - 99% 1 mhos 106 None None - -
12/21/2014 23:36 Ice Warning 26.8F 31F 32F 5 0% - 99% 1 mhos 106 None None - -
12/21/2014 23:26 Ice Warning 27.0F 31F 32F 5 0% - 99% 1 mhos 105 None None - -
12/21/2014 23:21 Ice Warning 27.0F 31F 32F 5 0% - 99% 1 mhos 106 None None - -
Date/Time
(MST)
Sf
Temp Chem Water Layer Surface Precipitation
Sf Sub Frz Factor Pct Depth IcePct Cond Salin Type Intens Accum Rate
12/21/2014 23:16 Ice Warning 27.1F 31F 32F 5 0% - 99% 1 mhos 105 None None - -
12/21/2014 23:07 Ice Warning 27.5F 31F 32F 5 0% - 99% 1 mhos 103 None None - -
12/21/2014 23:06 Ice Warning 27.5F 31F 32F 5 0% - 99% 1 mhos 103 None None - -
12/21/2014 22:56 Ice Warning 27.3F 31F 32F 5 0% - 99% 1 mhos 105 None None - -
12/21/2014 22:50 Ice Warning 27.7F 31F 32F 5 0% - 99% 1 mhos 103 None None - -
12/21/2014 22:46 Ice Warning 27.7F 31F 32F 5 0% - 99% 1 mhos 104 None None - -
12/21/2014 22:37 Ice Warning 28.2F 31F 32F 5 0% - 99% 1 mhos 100 None None - -
12/21/2014 22:36 Ice Warning 28.0F 31F 32F 5 0% - 99% 1 mhos 101 None None - -
12/21/2014 22:26 Ice Warning 28.0F 31F 32F 5 0% - 99% 1 mhos 103 None None - -
12/21/2014 22:21 Ice Warning 28.0F 31F 32F 5 0% - 99% 1 mhos 104 None None - -
12/21/2014 22:16 Ice Warning 28.0F 31F 32F 5 0% - 99% 1 mhos 103 None None - -
12/21/2014 22:07 Ice Warning 28.0F 31F 32F 5 0% - 99% 1 mhos 105 None None - -
12/21/2014 22:06 Ice Warning 28.0F 31F 32F 5 0% - 99% 1 mhos 105 None None - -
12/21/2014 21:56 Ice Warning 28.0F 31F 32F 5 0% - 99% 1 mhos 105 None None - -
12/21/2014 21:51 Ice Warning 28.0F 31F 32F 5 0% - 99% 1 mhos 105 None None - -
Date/Time
(MST)
Sf
Temp Chem Water Layer Surface Precipitation
Sf Sub Frz Factor Pct Depth IcePct Cond Salin Type Intens Accum Rate
12/21/2014 21:45 Ice Warning 28.0F 31F 32F 5 0% - 99% 1 mhos 105 None None - -
12/21/2014 21:37 Ice Warning 28.2F 31F 32F 5 0% - 99% 1 mhos 105 None None - -
12/21/2014 21:35 Ice Warning 28.4F 31F 32F 5 0% - 99% 1 mhos 103 None None - -
12/21/2014 21:25 Ice Warning 28.6F 31F 32F 5 0% - 98% 1 mhos 103 None None - -
12/21/2014 21:21 Ice Warning 28.6F 31F 32F 5 0% - 98% 1 mhos 104 None None - -
12/21/2014 21:15 Ice Warning 28.6F 31F 32F 5 0% - 98% 1 mhos 104 None None - -
12/21/2014 21:07 Ice Warning 28.8F 31F 32F 5 0% - 98% 1 mhos 103 None None - -
12/21/2014 21:05 Ice Warning 28.8F 31F 32F 5 0% - 98% 1 mhos 102 None None - -
12/21/2014 20:55 Ice Warning 28.8F 31F 32F 5 0% - 98% 1 mhos 103 None None - -
12/21/2014 20:50 Ice Warning 28.8F 31F 32F 5 0% - 98% 1 mhos 102 None None - -
12/21/2014 20:45 Ice Warning 29.1F 31F 32F 5 0% - 98% 1 mhos 99 None None - -
12/21/2014 20:36 Ice Warning 29.7F 31F 32F 5 0% - 98% 1 mhos 96 None None - -
12/21/2014 20:35 Ice Warning 29.7F 31F 32F 5 0% - 98% 1 mhos 96 None None - -
12/21/2014 20:25 Ice Warning 30.2F 31F 32F 5 0% - 98% 1 mhos 92 None None - -
12/21/2014 20:20 Ice Warning 30.2F 31F 32F 5 0% - 98% 1 mhos 92 None None - -
Date/Time
(MST)
Sf
Temp Chem Water Layer Surface Precipitation
Sf Sub Frz Factor Pct Depth IcePct Cond Salin Type Intens Accum Rate
12/21/2014 20:15 Ice Warning 30.6F 31F 32F 5 0% - 97% 1 mhos 90 None None - -
12/21/2014 20:07 Ice Warning 30.9F 31F 32F 5 0% - 96% 1 mhos 89 None None - -
12/21/2014 20:05 Ice Warning 30.9F 31F 32F 5 0% - 96% 1 mhos 89 Yes - - -
12/21/2014 19:55 Ice Warning 30.9F 31F 32F 5 0% - 96% 1 mhos 90 None None - -
12/21/2014 19:50 Ice Warning 30.7F 31F 32F 5 0% - 97% 1 mhos 91 None None - -
12/21/2014 19:45 Ice Warning 30.4F 31F 32F 5 0% - 97% 1 mhos 93 None None - -
12/21/2014 19:36 Ice Warning 29.8F 31F 32F 5 0% - 98% 1 mhos 97 None None - -
12/21/2014 19:35 Ice Warning 29.8F 31F 32F 5 0% - 98% 1 mhos 97 None None - -
12/21/2014 19:25 Ice Warning 30.2F 31F 32F 5 0% - 98% 1 mhos 94 None None - -
12/21/2014 19:21 Ice Warning 30.0F 31F 32F 5 0% - 98% 1 mhos 94 None None - -
12/21/2014 19:15 Ice Warning 30.2F 31F 32F 5 0% - 98% 1 mhos 91 None None - -
Change End Date:
Copyright © 1998-2005 Surface Systems, Inc.
All Rights Reserved
Send comments about the data to:
SCAN Web ® is a registered trademark of Surface Systems, Inc.
SCAN Web Version 5.6